Location: ????????
(55.6333°N, 37.7000°E)
Time: 11:41:55
(UTC+00:00)

Exosat Rocket - Pass Details

Date: 19 May 2025
Orbit: 761 x 2512 km, 72.3° (Epoch: 13 June)

Event Time Altitude Azimuth Distance (km) Brightness Sun altitude
Rises 21:09:02 0° 327° (NNW) 3,420 8.0 -14.3°
Reaches altitude 10° 21:11:36 10° 322° (NW) 2,384 6.9 -14.3°
Maximum altitude 21:16:32 49° 248° (WSW) 975 3.9 -14.4°
Enters shadow 21:19:33 22° 183° (S) 1,647 4.6 -14.4°
